Time,TemperatureF,DewpointF,PressureIn,WindDirection,WindDirectionDegrees,WindSpeedMPH,WindSpeedGustMPH,Humidity,HourlyPrecipIn,Conditions,Clouds,dailyrainin,SolarRadiationWatts/m^2,SoftwareType,DateUTC
2013-02-06 00:00:00,29.1,25.2,29.93,NNW,343,4.0,8.0,85,0.00,,,0.00,0,WeatherHawk,2013-02-06 05:00:00,
2013-02-06 00:01:00,29.1,25.2,29.93,NNW,329,6.0,8.0,85,0.00,,,0.00,0,WeatherHawk,2013-02-06 05:01:00,
2013-02-06 00:04:00,28.9,25.0,29.93,NW,319,5.0,8.0,85,0.00,,,0.00,0,WeatherHawk,2013-02-06 05:04:00,
2013-02-06 00:09:00,28.6,24.7,29.93,NNE,13,3.0,7.0,85,0.00,,,0.00,0,WeatherHawk,2013-02-06 05:09:00,
2013-02-06 00:14:00,29.3,25.6,29.93,East,88,4.0,7.0,86,0.00,,,0.00,0,WeatherHawk,2013-02-06 05:14:00,
2013-02-06 00:19:00,29.1,25.2,29.93,WSW,258,2.0,5.0,85,0.00,,,0.00,0,WeatherHawk,2013-02-06 05:19:00,
2013-02-06 00:24:00,28.8,24.8,29.93,NNW,335,5.0,5.0,85,0.00,,,0.00,0,WeatherHawk,2013-02-06 05:24:00,
2013-02-06 00:29:00,28.2,24.0,29.93,NW,307,4.0,7.0,84,0.00,,,0.00,0,WeatherHawk,2013-02-06 05:29:00,
2013-02-06 00:34:00,27.9,23.9,29.93,NNW,345,5.0,7.0,85,0.00,,,0.00,0,WeatherHawk,2013-02-06 05:34:00,
2013-02-06 00:39:00,27.9,23.9,29.93,North,11,4.0,8.0,85,0.00,,,0.00,1,WeatherHawk,2013-02-06 05:39:00,
2013-02-06 00:44:00,27.9,24.2,29.93,NNW,335,4.0,8.0,86,0.00,,,0.00,0,WeatherHawk,2013-02-06 05:44:00,
2013-02-06 00:49:00,27.9,24.2,29.93,NW,307,7.0,7.0,86,0.00,,,0.00,0,WeatherHawk,2013-02-06 05:49:00,
2013-02-06 00:54:00,27.7,24.0,29.93,NW,307,6.0,9.0,86,0.00,,,0.00,0,WeatherHawk,2013-02-06 05:54:00,
2013-02-06 00:59:00,27.5,23.9,29.93,NW,308,7.0,11.0,86,0.00,,,0.00,0,WeatherHawk,2013-02-06 05:59:00,
2013-02-06 01:04:00,27.5,23.9,29.93,NW,304,6.0,11.0,86,0.00,,,0.00,0,WeatherHawk,2013-02-06 06:04:00,
2013-02-06 01:09:00,27.3,23.7,29.93,NW,315,10.0,10.0,86,0.00,,,0.00,0,WeatherHawk,2013-02-06 06:09:00,
2013-02-06 01:14:00,27.3,23.7,29.93,NW,321,6.0,10.0,86,0.00,,,0.00,0,WeatherHawk,2013-02-06 06:14:00,
2013-02-06 01:19:00,27.3,23.7,29.93,NNW,329,5.0,10.0,86,0.00,,,0.00,0,WeatherHawk,2013-02-06 06:19:00,
2013-02-06 01:24:00,27.1,23.5,29.93,NW,322,7.0,11.0,86,0.00,,,0.00,0,WeatherHawk,2013-02-06 06:24:00,
2013-02-06 01:29:00,27.1,23.8,29.93,West,281,6.0,11.0,87,0.00,,,0.00,0,WeatherHawk,2013-02-06 06:29:00,
2013-02-06 01:34:00,27.0,23.6,29.93,NNW,333,7.0,9.0,87,0.00,,,0.00,0,WeatherHawk,2013-02-06 06:34:00,
2013-02-06 01:39:00,26.8,23.4,29.93,NNW,328,5.0,9.0,87,0.00,,,0.00,0,WeatherHawk,2013-02-06 06:39:00,
2013-02-06 01:44:00,26.8,23.4,29.94,NW,315,8.0,10.0,87,0.00,,,0.00,0,WeatherHawk,2013-02-06 06:44:00,
2013-02-06 01:49:00,26.6,23.3,29.94,North,350,6.0,10.0,87,0.00,,,0.00,0,WeatherHawk,2013-02-06 06:49:00,
2013-02-06 01:54:00,26.8,23.4,29.94,NW,304,4.0,9.0,87,0.00,,,0.00,0,WeatherHawk,2013-02-06 06:54:00,
2013-02-06 01:59:00,26.8,23.4,29.94,WNW,301,4.0,7.0,87,0.00,,,0.00,0,WeatherHawk,2013-02-06 06:59:00,
2013-02-06 02:04:00,26.6,23.3,29.94,NNW,327,5.0,8.0,87,0.00,,,0.00,0,WeatherHawk,2013-02-06 07:04:00,
2013-02-06 02:09:00,26.6,23.3,29.94,WNW,300,9.0,10.0,87,0.00,,,0.00,0,WeatherHawk,2013-02-06 07:09:00,
2013-02-06 02:14:00,26.4,23.4,29.94,NW,323,6.0,11.0,88,0.00,,,0.00,0,WeatherHawk,2013-02-06 07:14:00,
2013-02-06 02:19:00,26.2,23.2,29.94,NW,304,6.0,11.0,88,0.00,,,0.00,0,WeatherHawk,2013-02-06 07:19:00,
2013-02-06 02:24:00,26.2,23.2,29.94,NW,312,5.0,8.0,88,0.00,,,0.00,0,WeatherHawk,2013-02-06 07:24:00,
2013-02-06 02:29:00,26.1,23.0,29.93,NW,326,5.0,10.0,88,0.00,,,0.00,0,WeatherHawk,2013-02-06 07:29:00,
2013-02-06 02:34:00,26.1,23.0,29.93,NNW,339,6.0,10.0,88,0.00,,,0.00,0,WeatherHawk,2013-02-06 07:34:00,
2013-02-06 02:39:00,26.1,23.0,29.93,NNW,341,6.0,10.0,88,0.00,,,0.00,0,WeatherHawk,2013-02-06 07:39:00,
2013-02-06 02:44:00,26.1,23.0,29.93,WNW,298,6.0,10.0,88,0.00,,,0.00,0,WeatherHawk,2013-02-06 07:44:00,
2013-02-06 02:49:00,26.1,23.0,29.93,NNW,337,7.0,8.0,88,0.00,,,0.00,0,WeatherHawk,2013-02-06 07:49:00,
2013-02-06 02:54:00,26.2,23.2,29.93,NW,310,6.0,7.0,88,0.00,,,0.00,0,WeatherHawk,2013-02-06 07:54:00,
2013-02-06 02:59:00,26.2,23.2,29.93,WNW,292,5.0,8.0,88,0.00,,,0.00,0,WeatherHawk,2013-02-06 07:59:00,
2013-02-06 03:04:00,26.2,23.2,29.93,NW,307,5.0,8.0,88,0.00,,,0.00,0,WeatherHawk,2013-02-06 08:04:00,
2013-02-06 03:09:00,26.2,23.2,29.93,NW,305,5.0,7.0,88,0.00,,,0.00,0,WeatherHawk,2013-02-06 08:09:00,
2013-02-06 03:14:00,26.2,23.2,29.92,NW,319,5.0,8.0,88,0.00,,,0.00,0,WeatherHawk,2013-02-06 08:14:00,
2013-02-06 03:19:00,26.1,23.0,29.92,NNW,337,7.0,8.0,88,0.00,,,0.00,0,WeatherHawk,2013-02-06 08:19:00,
2013-02-06 03:25:00,26.2,23.2,29.92,NNW,334,6.0,8.0,88,0.00,,,0.00,0,WeatherHawk,2013-02-06 08:25:00,
2013-02-06 03:30:00,26.2,23.2,29.92,NNW,346,5.0,9.0,88,0.00,,,0.00,0,WeatherHawk,2013-02-06 08:30:00,
2013-02-06 03:35:00,26.2,22.9,29.92,NNW,337,6.0,9.0,87,0.00,,,0.00,0,WeatherHawk,2013-02-06 08:35:00,
2013-02-06 03:40:00,26.2,22.9,29.92,NNW,328,6.0,-999.0,87,0.00,,,0.00,0,WeatherHawk,2013-02-06 08:40:00,
2013-02-06 03:45:00,26.2,22.9,29.92,NW,305,4.0,7.0,87,0.00,,,0.00,0,WeatherHawk,2013-02-06 08:45:00,
2013-02-06 03:50:00,26.2,22.9,29.92,WNW,303,7.0,7.0,87,0.00,,,0.00,0,WeatherHawk,2013-02-06 08:50:00,
2013-02-06 03:55:00,26.2,22.9,29.92,NNW,329,6.0,7.0,87,0.00,,,0.00,0,WeatherHawk,2013-02-06 08:55:00,
2013-02-06 04:00:00,26.2,22.9,29.92,NW,325,5.0,7.0,87,0.00,,,0.00,0,WeatherHawk,2013-02-06 09:00:00,
2013-02-06 04:05:00,26.2,22.9,29.92,NW,325,5.0,7.0,87,0.00,,,0.00,1,WeatherHawk,2013-02-06 09:05:00,
2013-02-06 04:10:00,26.2,22.9,29.92,NW,311,5.0,7.0,87,0.00,,,0.00,1,WeatherHawk,2013-02-06 09:10:00,
2013-02-06 04:15:00,26.2,22.9,29.92,NW,309,4.0,8.0,87,0.00,,,0.00,0,WeatherHawk,2013-02-06 09:15:00,
2013-02-06 04:20:00,26.2,22.9,29.92,NNW,327,6.0,8.0,87,0.00,,,0.00,0,WeatherHawk,2013-02-06 09:20:00,
2013-02-06 04:25:00,26.2,22.9,29.93,NW,306,5.0,8.0,87,0.00,,,0.00,0,WeatherHawk,2013-02-06 09:25:00,
2013-02-06 04:30:00,26.2,22.9,29.93,NNW,339,7.0,10.0,87,0.00,,,0.00,0,WeatherHawk,2013-02-06 09:30:00,
2013-02-06 04:35:00,26.4,23.1,29.93,NW,308,7.0,10.0,87,0.00,,,0.00,0,WeatherHawk,2013-02-06 09:35:00,
2013-02-06 04:40:00,26.2,22.9,29.93,NW,322,4.0,9.0,87,0.00,,,0.00,0,WeatherHawk,2013-02-06 09:40:00,
2013-02-06 04:45:00,26.2,22.9,29.93,NW,313,5.0,7.0,87,0.00,,,0.00,0,WeatherHawk,2013-02-06 09:45:00,
2013-02-06 04:50:00,26.2,22.9,29.93,NW,323,6.0,9.0,87,0.00,,,0.00,0,WeatherHawk,2013-02-06 09:50:00,
2013-02-06 04:55:00,26.2,22.9,29.93,NW,325,6.0,9.0,87,0.00,,,0.00,0,WeatherHawk,2013-02-06 09:55:00,
2013-02-06 05:00:00,26.2,22.9,29.93,NW,320,7.0,7.0,87,0.00,,,0.00,0,WeatherHawk,2013-02-06 10:00:00,
2013-02-06 05:05:00,26.2,22.9,29.93,NNW,332,8.0,9.0,87,0.00,,,0.00,0,WeatherHawk,2013-02-06 10:05:00,
2013-02-06 05:10:00,26.2,22.9,29.94,NNW,341,6.0,9.0,87,0.00,,,0.00,0,WeatherHawk,2013-02-06 10:10:00,
2013-02-06 05:15:00,26.2,22.9,29.93,NNW,329,6.0,9.0,87,0.00,,,0.00,0,WeatherHawk,2013-02-06 10:15:00,
2013-02-06 05:20:00,26.1,22.7,29.93,NW,314,4.0,11.0,87,0.00,,,0.00,0,WeatherHawk,2013-02-06 10:20:00,
2013-02-06 05:25:00,26.1,22.7,29.94,NW,319,4.0,11.0,87,0.00,,,0.00,0,WeatherHawk,2013-02-06 10:25:00,
2013-02-06 05:30:00,26.2,22.9,29.94,NNW,329,8.0,10.0,87,0.00,,,0.00,0,WeatherHawk,2013-02-06 10:30:00,
2013-02-06 05:35:00,26.2,22.6,29.94,NW,326,8.0,11.0,86,0.00,,,0.00,0,WeatherHawk,2013-02-06 10:35:00,
2013-02-06 05:40:00,26.2,22.6,29.94,WNW,302,6.0,11.0,86,0.00,,,0.00,0,WeatherHawk,2013-02-06 10:40:00,
2013-02-06 05:45:00,26.2,22.6,29.94,NNW,327,9.0,-999.0,86,0.00,,,0.00,0,WeatherHawk,2013-02-06 10:45:00,
2013-02-06 05:50:00,26.2,22.6,29.94,NNW,329,8.0,12.0,86,0.00,,,0.00,0,WeatherHawk,2013-02-06 10:50:00,
2013-02-06 05:55:00,26.1,22.5,29.94,WNW,302,7.0,12.0,86,0.00,,,0.00,0,WeatherHawk,2013-02-06 10:55:00,
2013-02-06 06:00:00,26.1,22.5,29.95,NW,325,6.0,13.0,86,0.00,,,0.00,0,WeatherHawk,2013-02-06 11:00:00,
2013-02-06 06:05:00,26.1,22.5,29.95,NW,307,8.0,13.0,86,0.00,,,0.00,0,WeatherHawk,2013-02-06 11:05:00,
2013-02-06 06:10:00,25.9,22.3,29.95,NNW,332,7.0,13.0,86,0.00,,,0.00,0,WeatherHawk,2013-02-06 11:10:00,
2013-02-06 06:15:00,25.9,22.3,29.95,NNW,329,9.0,13.0,86,0.00,,,0.00,0,WeatherHawk,2013-02-06 11:15:00,
2013-02-06 06:20:00,25.9,22.3,29.95,NW,317,10.0,12.0,86,0.00,,,0.00,0,WeatherHawk,2013-02-06 11:20:00,
2013-02-06 06:25:00,25.9,22.0,29.95,NNW,327,8.0,12.0,85,0.00,,,0.00,0,WeatherHawk,2013-02-06 11:25:00,
2013-02-06 06:30:00,25.9,22.0,29.96,NNW,330,7.0,12.0,85,0.00,,,0.00,0,WeatherHawk,2013-02-06 11:30:00,
2013-02-06 06:35:00,25.9,22.0,29.95,NNW,328,8.0,12.0,85,0.00,,,0.00,0,WeatherHawk,2013-02-06 11:35:00,
2013-02-06 06:40:00,25.9,22.0,29.95,NW,310,9.0,11.0,85,0.00,,,0.00,0,WeatherHawk,2013-02-06 11:40:00,
2013-02-06 06:45:00,25.9,22.0,29.96,NNW,328,9.0,11.0,85,0.00,,,0.00,0,WeatherHawk,2013-02-06 11:45:00,
2013-02-06 06:50:00,25.9,22.0,29.96,NW,326,9.0,11.0,85,0.00,,,0.00,1,WeatherHawk,2013-02-06 11:50:00,
2013-02-06 06:55:00,25.9,22.0,29.96,NNW,327,7.0,11.0,85,0.00,,,0.00,2,WeatherHawk,2013-02-06 11:55:00,
2013-02-06 07:00:00,25.7,21.8,29.97,NW,318,7.0,11.0,85,0.00,,,0.00,2,WeatherHawk,2013-02-06 12:00:00,
2013-02-06 07:05:00,25.7,21.8,29.97,NNW,328,9.0,12.0,85,0.00,,,0.00,4,WeatherHawk,2013-02-06 12:05:00,
2013-02-06 07:10:00,25.7,21.8,29.97,NW,308,9.0,13.0,85,0.00,,,0.00,8,WeatherHawk,2013-02-06 12:10:00,
2013-02-06 07:15:00,25.7,21.8,29.97,NW,316,11.0,13.0,85,0.00,,,0.00,11,WeatherHawk,2013-02-06 12:15:00,
2013-02-06 07:20:00,25.7,21.8,29.97,NW,307,10.0,11.0,85,0.00,,,0.00,14,WeatherHawk,2013-02-06 12:20:00,
2013-02-06 07:25:00,25.7,21.8,29.97,NW,320,8.0,12.0,85,0.00,,,0.00,18,WeatherHawk,2013-02-06 12:25:00,
2013-02-06 07:30:00,25.5,21.7,29.97,NW,324,9.0,12.0,85,0.00,,,0.00,27,WeatherHawk,2013-02-06 12:30:00,
2013-02-06 07:35:00,25.5,21.7,29.97,WNW,301,8.0,12.0,85,0.00,,,0.00,39,WeatherHawk,2013-02-06 12:35:00,
2013-02-06 07:40:00,25.5,21.7,29.98,NW,306,7.0,11.0,85,0.00,,,0.00,51,WeatherHawk,2013-02-06 12:40:00,
2013-02-06 07:45:00,25.5,21.7,29.98,NW,312,11.0,12.0,85,0.00,,,0.00,64,WeatherHawk,2013-02-06 12:45:00,
2013-02-06 07:50:00,25.5,21.4,29.98,NW,317,9.0,12.0,84,0.00,,,0.00,71,WeatherHawk,2013-02-06 12:50:00,
2013-02-06 07:55:00,25.5,21.4,29.98,NW,308,6.0,13.0,84,0.00,,,0.00,86,WeatherHawk,2013-02-06 12:55:00,
2013-02-06 08:00:00,25.5,21.4,29.98,WNW,288,6.0,13.0,84,0.00,,,0.00,76,WeatherHawk,2013-02-06 13:00:00,
2013-02-06 08:05:00,25.5,21.4,29.98,NW,319,11.0,13.0,84,0.00,,,0.00,115,WeatherHawk,2013-02-06 13:05:00,
2013-02-06 08:10:00,25.7,21.5,29.98,NNW,328,6.0,13.0,84,0.00,,,0.00,84,WeatherHawk,2013-02-06 13:10:00,
2013-02-06 08:15:00,25.7,21.5,29.98,WNW,291,6.0,13.0,84,0.00,,,0.00,77,WeatherHawk,2013-02-06 13:15:00,
2013-02-06 08:20:00,25.7,21.3,29.99,WNW,288,6.0,13.0,83,0.00,,,0.00,174,WeatherHawk,2013-02-06 13:20:00,
2013-02-06 08:25:00,25.9,21.4,29.99,WNW,286,5.0,12.0,83,0.00,,,0.00,205,WeatherHawk,2013-02-06 13:25:00,
2013-02-06 08:30:00,26.2,21.8,29.99,NW,322,7.0,11.0,83,0.00,,,0.00,221,WeatherHawk,2013-02-06 13:30:00,
2013-02-06 08:35:00,26.4,21.7,29.99,NW,305,12.0,13.0,82,0.00,,,0.00,234,WeatherHawk,2013-02-06 13:35:00,
2013-02-06 08:40:00,26.8,21.7,29.99,WNW,298,6.0,13.0,81,0.00,,,0.00,242,WeatherHawk,2013-02-06 13:40:00,
2013-02-06 08:45:00,27.1,21.8,29.99,NW,305,8.0,13.0,80,0.00,,,0.00,267,WeatherHawk,2013-02-06 13:45:00,
2013-02-06 08:50:00,27.5,22.2,29.99,West,281,6.0,13.0,80,0.00,,,0.00,305,WeatherHawk,2013-02-06 13:50:00,
2013-02-06 08:55:00,28.0,22.4,29.99,WNW,290,6.0,14.0,79,0.00,,,0.00,321,WeatherHawk,2013-02-06 13:55:00,
2013-02-06 09:00:00,28.2,22.3,30.00,NW,309,6.0,14.0,78,0.00,,,0.00,244,WeatherHawk,2013-02-06 14:00:00,
2013-02-06 09:05:00,28.6,22.6,30.00,WNW,287,5.0,11.0,78,0.00,,,0.00,260,WeatherHawk,2013-02-06 14:05:00,
2013-02-06 09:10:00,28.6,22.3,30.00,WNW,289,6.0,11.0,77,0.00,,,0.00,222,WeatherHawk,2013-02-06 14:10:00,
2013-02-06 09:15:00,28.8,22.5,30.00,WNW,292,6.0,11.0,77,0.00,,,0.00,228,WeatherHawk,2013-02-06 14:15:00,
2013-02-06 09:20:00,28.9,22.7,30.00,WNW,298,6.0,10.0,77,0.00,,,0.00,209,WeatherHawk,2013-02-06 14:20:00,
2013-02-06 09:25:00,29.3,22.7,30.00,WNW,301,6.0,7.0,76,0.00,,,0.00,178,WeatherHawk,2013-02-06 14:25:00,
2013-02-06 09:30:00,29.3,22.7,30.00,WNW,299,4.0,13.0,76,0.00,,,0.00,265,WeatherHawk,2013-02-06 14:30:00,
2013-02-06 09:35:00,29.7,22.7,30.00,WNW,288,8.0,13.0,75,0.00,,,0.00,409,WeatherHawk,2013-02-06 14:35:00,
2013-02-06 09:40:00,30.0,22.8,30.00,NW,304,11.0,13.0,74,0.00,,,0.00,419,WeatherHawk,2013-02-06 14:40:00,
2013-02-06 09:45:00,30.7,23.5,30.00,WNW,294,6.0,13.0,74,0.00,,,0.00,325,WeatherHawk,2013-02-06 14:45:00,
2013-02-06 09:50:00,31.3,23.6,30.00,NW,321,9.0,13.0,73,0.00,,,0.00,328,WeatherHawk,2013-02-06 14:50:00,
2013-02-06 09:55:00,31.1,22.8,30.00,WNW,294,9.0,13.0,71,0.00,,,0.00,305,WeatherHawk,2013-02-06 14:55:00,
2013-02-06 10:00:00,31.1,22.8,30.00,WNW,303,13.0,13.0,71,0.00,,,0.00,315,WeatherHawk,2013-02-06 15:00:00,
2013-02-06 10:05:00,31.3,23.0,30.00,WNW,294,8.0,13.0,71,0.00,,,0.00,350,WeatherHawk,2013-02-06 15:05:00,
2013-02-06 10:10:00,31.5,22.8,30.00,WNW,291,11.0,13.0,70,0.00,,,0.00,285,WeatherHawk,2013-02-06 15:10:00,
2013-02-06 10:15:00,32.0,23.0,30.00,NW,312,14.0,14.0,69,0.00,,,0.00,533,WeatherHawk,2013-02-06 15:15:00,
2013-02-06 10:20:00,32.0,22.3,30.00,WNW,295,7.0,14.0,67,0.00,,,0.00,390,WeatherHawk,2013-02-06 15:20:00,
2013-02-06 10:25:00,32.4,22.6,30.00,West,278,6.0,14.0,67,0.00,,,0.00,445,WeatherHawk,2013-02-06 15:25:00,
2013-02-06 10:30:00,32.4,22.3,30.00,WNW,289,9.0,14.0,66,0.00,,,0.00,482,WeatherHawk,2013-02-06 15:30:00,
2013-02-06 10:35:00,32.5,21.7,29.99,WNW,288,13.0,14.0,64,0.00,,,0.00,479,WeatherHawk,2013-02-06 15:35:00,
2013-02-06 10:40:00,32.7,21.5,29.99,WNW,302,11.0,15.0,63,0.00,,,0.00,485,WeatherHawk,2013-02-06 15:40:00,
2013-02-06 10:45:00,32.7,21.5,29.99,NW,308,9.0,15.0,63,0.00,,,0.00,389,WeatherHawk,2013-02-06 15:45:00,
2013-02-06 10:50:00,32.9,21.7,29.99,WNW,293,9.0,15.0,63,0.00,,,0.00,499,WeatherHawk,2013-02-06 15:50:00,
2013-02-06 10:55:00,33.1,21.9,29.99,WNW,296,6.0,16.0,63,0.00,,,0.00,504,WeatherHawk,2013-02-06 15:55:00,
2013-02-06 11:00:00,33.3,21.7,29.99,WNW,296,6.0,16.0,62,0.00,,,0.00,512,WeatherHawk,2013-02-06 16:00:00,
2013-02-06 11:05:00,33.4,21.5,29.99,West,277,11.0,15.0,61,0.00,,,0.00,515,WeatherHawk,2013-02-06 16:05:00,
2013-02-06 11:10:00,34.0,21.6,29.99,WNW,293,14.0,15.0,60,0.00,,,0.00,486,WeatherHawk,2013-02-06 16:10:00,
2013-02-06 11:15:00,34.0,20.8,29.99,WNW,290,13.0,15.0,58,0.00,,,0.00,325,WeatherHawk,2013-02-06 16:15:00,
2013-02-06 11:20:00,34.0,20.4,29.99,NW,310,13.0,19.0,57,0.00,,,0.00,529,WeatherHawk,2013-02-06 16:20:00,
2013-02-06 11:25:00,34.5,20.9,29.99,NW,326,7.0,19.0,57,0.00,,,0.00,534,WeatherHawk,2013-02-06 16:25:00,
2013-02-06 11:30:00,35.1,20.5,30.00,WNW,297,13.0,14.0,55,0.00,,,0.00,517,WeatherHawk,2013-02-06 16:30:00,
2013-02-06 11:35:00,34.9,19.5,30.00,NW,305,10.0,14.0,53,0.00,,,0.00,536,WeatherHawk,2013-02-06 16:35:00,
2013-02-06 11:40:00,34.9,19.9,29.99,WNW,294,8.0,15.0,54,0.00,,,0.00,533,WeatherHawk,2013-02-06 16:40:00,
2013-02-06 11:45:00,35.1,18.3,29.99,WNW,294,11.0,19.0,50,0.00,,,0.00,543,WeatherHawk,2013-02-06 16:45:00,
2013-02-06 11:50:00,35.1,18.8,29.99,WNW,291,13.0,19.0,51,0.00,,,0.00,532,WeatherHawk,2013-02-06 16:50:00,
2013-02-06 11:55:00,35.4,18.2,29.99,WNW,284,11.0,17.0,49,0.00,,,0.00,536,WeatherHawk,2013-02-06 16:55:00,
2013-02-06 12:00:00,35.8,18.0,29.99,WNW,292,15.0,17.0,48,0.00,,,0.00,547,WeatherHawk,2013-02-06 17:00:00,
2013-02-06 12:05:00,35.8,18.5,29.99,NW,322,12.0,18.0,49,0.00,,,0.00,554,WeatherHawk,2013-02-06 17:05:00,
2013-02-06 12:10:00,36.0,18.7,29.98,WNW,296,14.0,20.0,49,0.00,,,0.00,542,WeatherHawk,2013-02-06 17:10:00,
2013-02-06 12:15:00,36.3,18.0,29.98,NW,312,10.0,20.0,47,0.00,,,0.00,520,WeatherHawk,2013-02-06 17:15:00,
2013-02-06 12:20:00,36.5,18.7,29.98,WNW,300,13.0,17.0,48,0.00,,,0.00,527,WeatherHawk,2013-02-06 17:20:00,
2013-02-06 12:25:00,36.3,18.5,29.98,WNW,302,9.0,18.0,48,0.00,,,0.00,557,WeatherHawk,2013-02-06 17:25:00,
2013-02-06 12:30:00,36.7,19.3,29.97,WNW,287,9.0,18.0,49,0.00,,,0.00,103,WeatherHawk,2013-02-06 17:30:00,
2013-02-06 12:35:00,36.9,19.0,29.97,WNW,287,15.0,15.0,48,0.00,,,0.00,598,WeatherHawk,2013-02-06 17:35:00,
2013-02-06 12:40:00,36.9,18.5,29.97,WNW,285,17.0,20.0,47,0.00,,,0.00,321,WeatherHawk,2013-02-06 17:40:00,
2013-02-06 12:45:00,36.7,18.9,29.98,NW,307,13.0,20.0,48,0.00,,,0.00,535,WeatherHawk,2013-02-06 17:45:00,
2013-02-06 12:50:00,36.9,18.5,29.97,WNW,286,15.0,23.0,47,0.00,,,0.00,122,WeatherHawk,2013-02-06 17:50:00,
2013-02-06 12:55:00,36.7,17.9,29.97,WNW,290,22.0,23.0,46,0.00,,,0.00,116,WeatherHawk,2013-02-06 17:55:00,
2013-02-06 13:00:00,36.1,17.9,29.98,WNW,293,11.0,24.0,47,0.00,,,0.00,106,WeatherHawk,2013-02-06 18:00:00,
2013-02-06 13:05:00,36.5,17.7,29.98,West,279,10.0,24.0,46,0.00,,,0.00,99,WeatherHawk,2013-02-06 18:05:00,
2013-02-06 13:10:00,36.9,18.0,29.97,NW,305,15.0,20.0,46,0.00,,,0.00,101,WeatherHawk,2013-02-06 18:10:00,
2013-02-06 13:15:00,37.2,18.4,29.98,WNW,298,15.0,23.0,46,0.00,,,0.00,112,WeatherHawk,2013-02-06 18:15:00,
2013-02-06 13:20:00,37.6,18.7,29.98,WNW,291,11.0,23.0,46,0.00,,,0.00,129,WeatherHawk,2013-02-06 18:20:00,
2013-02-06 13:25:00,37.8,18.3,29.98,WNW,286,14.0,16.0,45,0.00,,,0.00,116,WeatherHawk,2013-02-06 18:25:00,
2013-02-06 13:30:00,37.0,17.2,29.98,WNW,289,17.0,26.0,44,0.00,,,0.00,175,WeatherHawk,2013-02-06 18:30:00,
2013-02-06 13:35:00,37.0,17.2,29.98,WNW,293,8.0,26.0,44,0.00,,,0.00,133,WeatherHawk,2013-02-06 18:35:00,
2013-02-06 13:40:00,37.2,16.8,29.98,WNW,287,24.0,24.0,43,0.00,,,0.00,107,WeatherHawk,2013-02-06 18:40:00,
2013-02-06 13:45:00,37.8,17.3,29.99,WNW,292,12.0,24.0,43,0.00,,,0.00,175,WeatherHawk,2013-02-06 18:45:00,
2013-02-06 13:50:00,37.8,16.8,29.99,WNW,285,15.0,25.0,42,0.00,,,0.00,224,WeatherHawk,2013-02-06 18:50:00,
2013-02-06 13:55:00,38.1,17.1,29.99,WNW,288,14.0,25.0,42,0.00,,,0.00,173,WeatherHawk,2013-02-06 18:55:00,
2013-02-06 14:00:00,37.4,16.4,29.99,WNW,298,21.0,26.0,42,0.00,,,0.00,150,WeatherHawk,2013-02-06 19:00:00,
2013-02-06 14:05:00,37.0,16.6,29.99,WNW,290,21.0,26.0,43,0.00,,,0.00,143,WeatherHawk,2013-02-06 19:05:00,
2013-02-06 14:10:00,36.9,16.5,29.99,WNW,290,21.0,26.0,43,0.00,,,0.00,178,WeatherHawk,2013-02-06 19:10:00,
2013-02-06 14:15:00,36.7,16.8,30.00,NW,312,10.0,29.0,44,0.00,,,0.00,153,WeatherHawk,2013-02-06 19:15:00,
2013-02-06 14:20:00,36.5,16.7,29.99,WNW,288,18.0,29.0,44,0.00,,,0.00,168,WeatherHawk,2013-02-06 19:20:00,
2013-02-06 14:25:00,36.7,17.4,30.00,NW,304,13.0,23.0,45,0.00,,,0.00,138,WeatherHawk,2013-02-06 19:25:00,
2013-02-06 14:30:00,36.5,16.2,30.00,WNW,299,13.0,26.0,43,0.00,,,0.00,85,WeatherHawk,2013-02-06 19:30:00,
2013-02-06 14:35:00,36.5,16.2,30.00,NW,309,14.0,26.0,43,0.00,,,0.00,114,WeatherHawk,2013-02-06 19:35:00,
2013-02-06 14:40:00,36.5,15.6,30.00,WNW,303,18.0,23.0,42,0.00,,,0.00,109,WeatherHawk,2013-02-06 19:40:00,
2013-02-06 14:45:00,36.5,16.2,30.00,NW,306,13.0,23.0,43,0.00,,,0.00,137,WeatherHawk,2013-02-06 19:45:00,
2013-02-06 14:50:00,36.7,16.3,30.00,NW,309,14.0,20.0,43,0.00,,,0.00,353,WeatherHawk,2013-02-06 19:50:00,
2013-02-06 14:55:00,36.9,16.5,30.01,WNW,294,13.0,19.0,43,0.00,,,0.00,94,WeatherHawk,2013-02-06 19:55:00,
2013-02-06 15:00:00,36.7,16.8,30.01,WNW,295,13.0,20.0,44,0.00,,,0.00,227,WeatherHawk,2013-02-06 20:00:00,
2013-02-06 15:05:00,36.7,16.3,30.01,NW,312,12.0,20.0,43,0.00,,,0.00,214,WeatherHawk,2013-02-06 20:05:00,
2013-02-06 15:10:00,36.7,16.3,30.02,NNW,329,10.0,17.0,43,0.00,,,0.00,347,WeatherHawk,2013-02-06 20:10:00,
2013-02-06 15:15:00,37.2,17.3,30.01,WNW,298,17.0,20.0,44,0.00,,,0.00,364,WeatherHawk,2013-02-06 20:15:00,
2013-02-06 15:20:00,37.4,17.0,30.01,WNW,288,20.0,25.0,43,0.00,,,0.00,273,WeatherHawk,2013-02-06 20:20:00,
2013-02-06 15:25:00,37.2,16.3,30.01,WNW,303,22.0,25.0,42,0.00,,,0.00,259,WeatherHawk,2013-02-06 20:25:00,
2013-02-06 15:30:00,36.9,15.9,30.01,WNW,301,23.0,31.0,42,0.00,,,0.00,254,WeatherHawk,2013-02-06 20:30:00,
2013-02-06 15:35:00,37.0,16.6,30.02,WNW,285,16.0,31.0,43,0.00,,,0.00,222,WeatherHawk,2013-02-06 20:35:00,
2013-02-06 15:40:00,37.4,16.4,30.02,WNW,293,17.0,26.0,42,0.00,,,0.00,262,WeatherHawk,2013-02-06 20:40:00,
2013-02-06 15:45:00,37.4,16.4,30.02,WNW,290,10.0,22.0,42,0.00,,,0.00,230,WeatherHawk,2013-02-06 20:45:00,
2013-02-06 15:50:00,37.2,16.8,30.03,WNW,299,15.0,23.0,43,0.00,,,0.00,234,WeatherHawk,2013-02-06 20:50:00,
2013-02-06 15:55:00,37.0,16.1,30.03,WNW,296,18.0,23.0,42,0.00,,,0.00,212,WeatherHawk,2013-02-06 20:55:00,
2013-02-06 16:00:00,36.9,15.9,30.03,WNW,292,13.0,23.0,42,0.00,,,0.00,180,WeatherHawk,2013-02-06 21:00:00,
2013-02-06 16:05:00,36.9,15.9,30.03,WNW,287,14.0,23.0,42,0.00,,,0.00,149,WeatherHawk,2013-02-06 21:05:00,
2013-02-06 16:10:00,36.9,15.9,30.04,WNW,287,9.0,20.0,42,0.00,,,0.00,148,WeatherHawk,2013-02-06 21:10:00,
2013-02-06 16:15:00,37.0,16.1,30.04,WNW,302,12.0,15.0,42,0.00,,,0.00,135,WeatherHawk,2013-02-06 21:15:00,
2013-02-06 16:20:00,37.0,16.1,30.04,WNW,299,13.0,15.0,42,0.00,,,0.00,97,WeatherHawk,2013-02-06 21:20:00,
2013-02-06 16:25:00,36.9,14.2,30.05,WNW,301,19.0,19.0,39,0.00,,,0.00,92,WeatherHawk,2013-02-06 21:25:00,
2013-02-06 16:30:00,36.7,14.7,30.05,WNW,292,11.0,19.0,40,0.00,,,0.00,55,WeatherHawk,2013-02-06 21:30:00,
2013-02-06 16:35:00,36.5,15.1,30.05,WNW,290,10.0,19.0,41,0.00,,,0.00,61,WeatherHawk,2013-02-06 21:35:00,
2013-02-06 16:40:00,36.3,14.9,30.05,WNW,282,14.0,14.0,41,0.00,,,0.00,51,WeatherHawk,2013-02-06 21:40:00,
2013-02-06 16:45:00,36.1,14.7,30.05,WNW,302,12.0,19.0,41,0.00,,,0.00,41,WeatherHawk,2013-02-06 21:45:00,
2013-02-06 16:50:00,36.0,14.6,30.05,WNW,286,15.0,19.0,41,0.00,,,0.00,27,WeatherHawk,2013-02-06 21:50:00,
2013-02-06 16:55:00,35.8,15.0,30.05,WNW,284,11.0,19.0,42,0.00,,,0.00,13,WeatherHawk,2013-02-06 21:55:00,
2013-02-06 17:00:00,35.6,14.8,30.06,NW,304,11.0,19.0,42,0.00,,,0.00,7,WeatherHawk,2013-02-06 22:00:00,
2013-02-06 17:05:00,35.4,14.6,30.06,WNW,287,13.0,19.0,42,0.00,,,0.00,3,WeatherHawk,2013-02-06 22:05:00,
2013-02-06 17:10:00,35.4,14.6,30.06,West,277,16.0,20.0,42,0.00,,,0.00,2,WeatherHawk,2013-02-06 22:10:00,
2013-02-06 17:15:00,35.2,14.5,30.06,WNW,291,13.0,20.0,42,0.00,,,0.00,0,WeatherHawk,2013-02-06 22:15:00,
2013-02-06 17:20:00,35.2,14.5,30.07,WNW,298,11.0,16.0,42,0.00,,,0.00,0,WeatherHawk,2013-02-06 22:20:00,
2013-02-06 17:25:00,35.1,14.3,30.08,WNW,299,11.0,15.0,42,0.00,,,0.00,0,WeatherHawk,2013-02-06 22:25:00,
2013-02-06 17:30:00,35.1,14.3,30.08,NW,316,10.0,14.0,42,0.00,,,0.00,0,WeatherHawk,2013-02-06 22:30:00,
2013-02-06 17:35:00,34.9,14.1,30.08,WNW,295,12.0,15.0,42,0.00,,,0.00,0,WeatherHawk,2013-02-06 22:35:00,
2013-02-06 17:40:00,34.9,14.1,30.09,WNW,291,13.0,18.0,42,0.00,,,0.00,0,WeatherHawk,2013-02-06 22:40:00,
2013-02-06 17:45:00,34.7,14.0,30.09,WNW,295,11.0,18.0,42,0.00,,,0.00,0,WeatherHawk,2013-02-06 22:45:00,
2013-02-06 17:50:00,34.7,14.0,30.09,WNW,299,9.0,14.0,42,0.00,,,0.00,1,WeatherHawk,2013-02-06 22:50:00,
2013-02-06 17:55:00,34.5,13.8,30.09,WNW,292,20.0,20.0,42,0.00,,,0.00,0,WeatherHawk,2013-02-06 22:55:00,
2013-02-06 18:00:00,34.5,13.3,30.09,WNW,285,8.0,21.0,41,0.00,,,0.00,0,WeatherHawk,2013-02-06 23:00:00,
2013-02-06 18:05:00,34.3,13.1,30.10,WNW,298,11.0,21.0,41,0.00,,,0.00,0,WeatherHawk,2013-02-06 23:05:00,
2013-02-06 18:10:00,34.3,12.6,30.10,West,281,11.0,16.0,40,0.00,,,0.00,0,WeatherHawk,2013-02-06 23:10:00,
2013-02-06 18:15:00,34.2,12.4,30.11,WNW,295,11.0,16.0,40,0.00,,,0.00,0,WeatherHawk,2013-02-06 23:15:00,
2013-02-06 18:20:00,34.0,12.2,30.11,WNW,301,11.0,16.0,40,0.00,,,0.00,0,WeatherHawk,2013-02-06 23:20:00,
2013-02-06 18:25:00,34.0,12.2,30.11,WNW,288,12.0,13.0,40,0.00,,,0.00,0,WeatherHawk,2013-02-06 23:25:00,
2013-02-06 18:30:00,34.2,11.8,30.12,WNW,295,7.0,15.0,39,0.00,,,0.00,0,WeatherHawk,2013-02-06 23:30:00,
2013-02-06 18:35:00,34.0,11.7,30.12,WNW,296,10.0,15.0,39,0.00,,,0.00,0,WeatherHawk,2013-02-06 23:35:00,
2013-02-06 18:40:00,34.0,11.7,30.12,WNW,284,13.0,13.0,39,0.00,,,0.00,0,WeatherHawk,2013-02-06 23:40:00,
2013-02-06 18:45:00,33.8,12.1,30.13,WNW,282,13.0,13.0,40,0.00,,,0.00,0,WeatherHawk,2013-02-06 23:45:00,
2013-02-06 18:50:00,33.6,11.9,30.13,WNW,282,14.0,14.0,40,0.00,,,0.00,0,WeatherHawk,2013-02-06 23:50:00,
2013-02-06 18:55:00,33.6,11.3,30.13,WNW,288,11.0,14.0,39,0.00,,,0.00,0,WeatherHawk,2013-02-06 23:55:00,
2013-02-06 19:00:00,33.4,11.7,30.14,WNW,292,11.0,14.0,40,0.00,,,0.00,0,WeatherHawk,2013-02-07 00:00:00,
2013-02-06 19:06:00,33.3,11.0,30.14,WNW,285,14.0,14.0,39,0.00,,,0.00,0,WeatherHawk,2013-02-07 00:06:00,
2013-02-06 19:11:00,33.3,11.0,30.14,WNW,288,12.0,15.0,39,0.00,,,0.00,0,WeatherHawk,2013-02-07 00:11:00,
2013-02-06 19:16:00,33.3,11.0,30.15,NW,318,8.0,17.0,39,0.00,,,0.00,0,WeatherHawk,2013-02-07 00:16:00,
2013-02-06 19:21:00,32.9,10.7,30.15,WNW,297,12.0,17.0,39,0.00,,,0.00,0,WeatherHawk,2013-02-07 00:21:00,
2013-02-06 19:26:00,32.9,10.7,30.15,West,279,8.0,14.0,39,0.00,,,0.00,0,WeatherHawk,2013-02-07 00:26:00,
2013-02-06 19:31:00,32.5,10.4,30.15,WNW,301,9.0,12.0,39,0.00,,,0.00,0,WeatherHawk,2013-02-07 00:31:00,
2013-02-06 19:36:00,32.5,10.4,30.16,NW,304,9.0,14.0,39,0.00,,,0.00,0,WeatherHawk,2013-02-07 00:36:00,
2013-02-06 19:41:00,32.5,10.4,30.16,WNW,287,13.0,14.0,39,0.00,,,0.00,0,WeatherHawk,2013-02-07 00:41:00,
2013-02-06 19:46:00,32.4,10.2,30.16,WNW,297,9.0,15.0,39,0.00,,,0.00,0,WeatherHawk,2013-02-07 00:46:00,
2013-02-06 19:51:00,32.2,10.0,30.16,WNW,284,15.0,15.0,39,0.00,,,0.00,0,WeatherHawk,2013-02-07 00:51:00,
2013-02-06 19:56:00,32.0,9.9,30.17,WNW,289,17.0,17.0,39,0.00,,,0.00,0,WeatherHawk,2013-02-07 00:56:00,
2013-02-06 20:01:00,32.0,9.3,30.17,West,277,12.0,17.0,38,0.00,,,0.00,0,WeatherHawk,2013-02-07 01:01:00,
2013-02-06 20:06:00,32.0,9.3,30.17,WNW,298,9.0,17.0,38,0.00,,,0.00,0,WeatherHawk,2013-02-07 01:06:00,
2013-02-06 20:11:00,32.0,9.3,30.18,WNW,289,8.0,17.0,38,0.00,,,0.00,0,WeatherHawk,2013-02-07 01:11:00,
2013-02-06 20:16:00,32.0,8.7,30.18,WNW,293,12.0,19.0,37,0.00,,,0.00,0,WeatherHawk,2013-02-07 01:16:00,
2013-02-06 20:21:00,31.8,8.5,30.18,WNW,295,9.0,19.0,37,0.00,,,0.00,0,WeatherHawk,2013-02-07 01:21:00,
2013-02-06 20:26:00,31.6,7.8,30.18,WNW,294,12.0,18.0,36,0.00,,,0.00,0,WeatherHawk,2013-02-07 01:26:00,
2013-02-06 20:31:00,31.6,7.8,30.18,NW,306,9.0,19.0,36,0.00,,,0.00,0,WeatherHawk,2013-02-07 01:31:00,
2013-02-06 20:36:00,31.5,7.0,30.19,WNW,290,13.0,19.0,35,0.00,,,0.00,0,WeatherHawk,2013-02-07 01:36:00,
2013-02-06 20:41:00,31.5,7.0,30.19,NW,305,10.0,18.0,35,0.00,,,0.00,0,WeatherHawk,2013-02-07 01:41:00,
2013-02-06 20:46:00,31.3,6.2,30.19,WNW,292,12.0,18.0,34,0.00,,,0.00,0,WeatherHawk,2013-02-07 01:46:00,
2013-02-06 20:51:00,31.3,6.2,30.20,WNW,302,11.0,13.0,34,0.00,,,0.00,0,WeatherHawk,2013-02-07 01:51:00,
2013-02-06 20:56:00,31.1,5.4,30.20,WNW,291,11.0,18.0,33,0.00,,,0.00,0,WeatherHawk,2013-02-07 01:56:00,
2013-02-06 21:01:00,31.1,5.4,30.20,WNW,301,17.0,18.0,33,0.00,,,0.00,0,WeatherHawk,2013-02-07 02:01:00,
2013-02-06 21:06:00,31.1,5.4,30.20,WNW,291,10.0,20.0,33,0.00,,,0.00,0,WeatherHawk,2013-02-07 02:06:00,
2013-02-06 21:11:00,30.9,5.2,30.20,WNW,286,12.0,20.0,33,0.00,,,0.00,0,WeatherHawk,2013-02-07 02:11:00,
2013-02-06 21:16:00,30.7,5.1,30.21,WNW,294,14.0,15.0,33,0.00,,,0.00,0,WeatherHawk,2013-02-07 02:16:00,
2013-02-06 21:21:00,30.7,5.1,30.21,WNW,284,11.0,16.0,33,0.00,,,0.00,0,WeatherHawk,2013-02-07 02:21:00,
2013-02-06 21:26:00,30.7,5.1,30.21,WNW,292,12.0,17.0,33,0.00,,,0.00,0,WeatherHawk,2013-02-07 02:26:00,
2013-02-06 21:31:00,30.6,4.9,30.22,NW,304,11.0,17.0,33,0.00,,,0.00,0,WeatherHawk,2013-02-07 02:31:00,
2013-02-06 21:36:00,30.4,4.8,30.22,WNW,303,13.0,17.0,33,0.00,,,0.00,0,WeatherHawk,2013-02-07 02:36:00,
2013-02-06 21:41:00,30.2,4.6,30.22,NW,304,13.0,17.0,33,0.00,,,0.00,0,WeatherHawk,2013-02-07 02:41:00,
2013-02-06 21:46:00,30.2,5.2,30.22,WNW,301,11.0,13.0,34,0.00,,,0.00,0,WeatherHawk,2013-02-07 02:46:00,
2013-02-06 21:51:00,29.8,4.9,30.23,NW,316,12.0,13.0,34,0.00,,,0.00,0,WeatherHawk,2013-02-07 02:51:00,
2013-02-06 21:56:00,29.8,4.9,30.23,WNW,299,8.0,15.0,34,0.00,,,0.00,0,WeatherHawk,2013-02-07 02:56:00,
2013-02-06 22:01:00,29.7,4.8,30.23,NW,305,11.0,15.0,34,0.00,,,0.00,0,WeatherHawk,2013-02-07 03:01:00,
2013-02-06 22:06:00,29.7,4.1,30.24,NW,306,10.0,14.0,33,0.00,,,0.00,0,WeatherHawk,2013-02-07 03:06:00,
2013-02-06 22:11:00,29.7,4.1,30.24,NW,323,10.0,14.0,33,0.00,,,0.00,0,WeatherHawk,2013-02-07 03:11:00,
2013-02-06 22:16:00,29.5,4.0,30.24,NW,314,10.0,14.0,33,0.00,,,0.00,0,WeatherHawk,2013-02-07 03:16:00,
2013-02-06 22:21:00,29.5,4.0,30.25,NW,313,14.0,15.0,33,0.00,,,0.00,0,WeatherHawk,2013-02-07 03:21:00,
2013-02-06 22:26:00,29.3,3.8,30.26,WNW,297,13.0,15.0,33,0.00,,,0.00,0,WeatherHawk,2013-02-07 03:26:00,
2013-02-06 22:31:00,29.1,3.6,30.26,NW,312,12.0,15.0,33,0.00,,,0.00,0,WeatherHawk,2013-02-07 03:31:00,
2013-02-06 22:36:00,28.9,3.5,30.26,WNW,302,10.0,14.0,33,0.00,,,0.00,0,WeatherHawk,2013-02-07 03:36:00,
2013-02-06 22:41:00,29.1,3.6,30.26,WNW,295,16.0,16.0,33,0.00,,,0.00,0,WeatherHawk,2013-02-07 03:41:00,
2013-02-06 22:46:00,28.9,3.5,30.26,WNW,298,14.0,16.0,33,0.00,,,0.00,0,WeatherHawk,2013-02-07 03:46:00,
2013-02-06 22:51:00,28.8,3.3,30.26,WNW,299,11.0,16.0,33,0.00,,,0.00,0,WeatherHawk,2013-02-07 03:51:00,
2013-02-06 22:57:00,28.6,3.8,30.26,NW,311,8.0,14.0,34,0.00,,,0.00,0,WeatherHawk,2013-02-07 03:57:00,
2013-02-06 23:02:00,28.6,3.8,30.27,NW,307,11.0,15.0,34,0.00,,,0.00,0,WeatherHawk,2013-02-07 04:02:00,
2013-02-06 23:07:00,28.4,3.7,30.27,NNW,330,8.0,15.0,34,0.00,,,0.00,1,WeatherHawk,2013-02-07 04:07:00,
2013-02-06 23:12:00,28.0,3.3,30.27,NW,317,8.0,11.0,34,0.00,,,0.00,0,WeatherHawk,2013-02-07 04:12:00,
2013-02-06 23:17:00,27.9,3.2,30.27,NW,314,10.0,11.0,34,0.00,,,0.00,0,WeatherHawk,2013-02-07 04:17:00,
2013-02-06 23:22:00,27.9,3.2,30.27,WNW,301,10.0,13.0,34,0.00,,,0.00,0,WeatherHawk,2013-02-07 04:22:00,
2013-02-06 23:27:00,27.7,3.6,30.27,NNW,327,5.0,13.0,35,0.00,,,0.00,0,WeatherHawk,2013-02-07 04:27:00,
2013-02-06 23:32:00,27.5,3.5,30.27,NW,312,10.0,12.0,35,0.00,,,0.00,0,WeatherHawk,2013-02-07 04:32:00,
2013-02-06 23:37:00,27.3,3.3,30.27,NW,307,8.0,11.0,35,0.00,,,0.00,0,WeatherHawk,2013-02-07 04:37:00,
2013-02-06 23:42:00,27.3,3.9,30.27,NW,311,7.0,11.0,36,0.00,,,0.00,0,WeatherHawk,2013-02-07 04:42:00,
2013-02-06 23:47:00,27.3,4.5,30.28,NW,316,6.0,10.0,37,0.00,,,0.00,0,WeatherHawk,2013-02-07 04:47:00,
2013-02-06 23:53:00,27.1,5.5,30.28,NNW,331,9.0,10.0,39,0.00,,,0.00,0,WeatherHawk,2013-02-07 04:53:00,
2013-02-06 23:58:00,27.1,5.5,30.28,NW,322,6.0,11.0,39,0.00,,,0.00,0,WeatherHawk,2013-02-07 04:58:00,